Current Version              Previous Version:    01  02  03  04  05  06  07  08  09  10  11  12  13  14  15  16  17  18  19  20  21  22  23  24  25  26  27  28  29  30  
   31  32  33  34  35  36  37  38  39  40  41  42  43  44  45  46  47  48  49  50  51  52  53  54  55  56  57  58  59  60  

[Printable]
011
ASUS44 KLUB 170401
RWRTX
WEST TEXAS WEATHER ROUNDUP
NATIONAL WEATHER SERVICE LUBBOCK TX
1100 PM CDT WED APR 16 2014

NOTE: "FAIR" INDICATES FEW OR NO CLOUDS BELOW 12,000 FEET WITH NO
SIGNIFICANT WEATHER AND/OR OBSTRUCTIONS TO VISIBILITY.

TXZ004-006>008-010-012-014-016-OKZ002-170500-
TEXAS PANHANDLE/OKLAHOMA PANHANDLE

CITY           SKY/WX    TMP DP  RH WIND       PRES   REMARKS
AMARILLO       MOCLDY    57  18  21 NE18      29.92R
BORGER         MOCLDY    58  29  33 NE15G21   29.95R
DALHART        CLOUDY    55  27  34 NE18      30.00R
GUYMON         CLOUDY    53  31  42 NE22G28   30.00R
$$

TXZ026-029-035-045-048-170500-
SOUTHERN PANHANDLE/SOUTH PLAINS/ROLLING PLAINS

CITY           SKY/WX    TMP DP  RH WIND       PRES   REMARKS
CHILDRESS      MOCLDY    64  31  28 SE17G26   29.87R
LUBBOCK        CLOUDY    65  28  24 S23G35    29.79R
$$

TXZ052-054-060>062-072-078-127-140-154-169-170500-
PERMIAN BASIN/CONCHO VALLEY/BIG COUNTRY/EDWARDS PLATEAU

CITY           SKY/WX    TMP DP  RH WIND       PRES   REMARKS
ABILENE        CLEAR     63  35  35 SE18G28   29.89R
BROWNWOOD      CLOUDY    59  41  51 SE10      29.93R
JUNCTION       CLOUDY    61  39  44 SE6       29.92R
MIDLAND        CLEAR     62  34  35 SE20      29.83R
ODESSA         CLEAR     62  32  32 S18G28    29.82R
SAN ANGELO     CLEAR     62  35  36 S6        29.89R
WINK           CLEAR     64  33  31 SE20G28   29.77R
$$

TXZ055-058-074-075-080-082-170500-
FAR WEST/SOUTHWEST MOUNTAINS/TRANS PECOS

CITY           SKY/WX    TMP DP  RH WIND       PRES   REMARKS
DRYDEN           N/A     65  40  39 SE17G26   29.83R
EL PASO        PTCLDY    77  -1   5 W22G29    29.80R
FORT STOCKTON  CLEAR     62  34  35 SE24G31   29.80R
GUADALUPE PASS CLEAR     67   0   7 W12       29.89R
MARFA          PTCLDY    57   7  13 SE5       29.91R
PECOS          CLEAR     65  31  28 E12       29.75R
PRESIDIO       FAIR      71  17  12 N6        29.77S
$$

TXZ014-016-019-021>030-083-170500
TEXAS TECH WEST TEXAS MESONET/TEXAS PANHANDLE/NORTHERN SOUTH PLAINS

CITY           SKY/WX    TMP DP  RH WIND       PRES   REMARKS
ABERNATHY 5ENE   N/A     64  26  23 S22       29.79R
AMARILLO 9NNE    N/A     59  29  33 NE20G30   29.92R
AMARILLO 7SSE    N/A     59  20  21 NE17      29.91R
AMHERST 1NE      N/A     64  22  20 SE17      29.78R
BOOTLEG 11WNW    N/A     54  27  35 N22       29.93R
CANADIAN 6E      N/A     59  27  29 NE12      29.94R
CAPROCK CYN SP   N/A     63  27  25 E12       29.85R
CHILDRESS 2NNE   N/A     61  30  31 E15       29.86R
CLARENDON 2WSW   N/A     58  27  30 E12       29.89R
CLAUDE 12SW      N/A     56  21  26 NE13      29.88R
DIMMITT 2NE      N/A     62  22  21 E18       29.81R
FLOYDADA 2NNE    N/A     62  22  21 E10       29.81R
FRIONA 2NE       N/A     58  22  24 N24       29.84R
GOODLETT 3W      N/A     62  30  30 E15       29.86R
HART 3N          N/A     59  27  29 E17       29.82R
HEREFORD 2NW     N/A     61  17  18 NE22      29.85R
MCLEAN 1E        N/A     57  26  31 E10       29.91R
MEMPHIS 1NE      N/A     62  29  28 E10       29.87R
MULESHOE 2SSW    N/A     62  15  16 S5G15     29.80R
OLTON 6S         N/A     65  24  21 S21       29.79R
PALO DURO SP     N/A     59  20  22 E14       29.89R
PAMPA 2E         N/A     53  22  29 E10       29.94R
PLAINVIEW 1S     N/A     61  27  27 NE10      29.81R
SILVERTON 7ESE   N/A     60  25  25 E15       29.85R
TULIA 2ENE       N/A     61  24  24 E18       29.83R
TURKEY 2WSW      N/A     64  27  25 E15       29.83R
UMBARGER 3NNE    N/A     60  18  20 NE22      29.88R
$$

TXZ033>036-039>041-045>048-170500
TEXAS TECH WEST TEXAS MESONET/SOUTH PLAINS

CITY           SKY/WX    TMP DP  RH WIND       PRES   REMARKS
AIKEN 3WSW       N/A     58  29  32 E10       29.82R
ANDREWS 2NE      N/A     63  30  29 SE17      29.81R
ANTON 6SSW       N/A     64  28  25 S22       29.78R
BROWNFIELD 2S    N/A     60  27  28 SE14      29.81R
DENVR CTY 7WNW   N/A     60  23  24 S12       29.80R
GAIL 2ESE        N/A     63  30  28 S12       29.83R
LAMESA 2SE       N/A     62  32  32 SE15      29.83R
LEVELLAND 4S     N/A     63  24  23 SE18      29.79R
LUBBOCK 3WNW     N/A     65  28  24 SE20G30   29.79R
MORTON 1ENE      N/A     65  21  18 S17G26    29.78R
ODONNELL 1N      N/A     63  30  28 S15       29.82R
PLAINS 3N        N/A     64  25  23 SE17      29.80R
RALLS 1SE        N/A     63  25  23 SE18      29.81R
REESE CENTER     N/A     64  27  24 SE26      29.79R
SEAGRAVES 1SW    N/A     63  29  27 SE15      29.80R
SEMINOLE 2NNE    N/A     63  29  28 S16       29.80R
SLATON 2NE       N/A     63  27  25 S18       29.81R
SNYDER 3E        N/A     63  29  28 SE17      29.84R
SUNDOWN 8SW      N/A     63  26  23 SE17      29.80R
TAHOKA 3NNE      N/A     63  29  27 S18       29.81R
WOLFFORTH 6SSW   N/A     64  28  25 SE18      29.80R
$$

TXZ031-032-036>038-042>044-170500-
TEXAS TECH WEST TEXAS MESONET/ROLLING PLAINS

CITY           SKY/WX    TMP DP  RH WIND       PRES   REMARKS
ASPERMONT 3NE    N/A     64  30  27 SE14      29.84R
FLUVANNA 3WNW    N/A     64  28  25 SE18      29.83R
GRAHAM 5SSW      N/A     65  29  25 S22       29.81R
GUTHRIE 10WSW    N/A     64  28  26 SE16      29.82R
HASKELL 1NW      N/A     64  31  29 SE10      29.86R
JAYTON 1SSE      N/A     66  28  23 SE13      29.82R
KNOX CITY 3NW    N/A     63  29  27 SE13      29.86R
LK A HENRY 1NW   N/A     66  29  24 S12       29.81R
NORTHFIELD 1S    N/A     65  30  27 E15       29.83R
ODELL 4ENE       N/A     59  36  41 E16       29.91R
PADUCAH 10SW     N/A     65  29  26 SE17      29.83R
POST 1NE         N/A     66  28  23 SE16      29.81R
RRING SPRGS 3N   N/A     64  26  23 SE17      29.82R
SEYMOUR 3NW      N/A     60  36  40 E13       29.89R
SPUR 1W          N/A     64  25  22 SE10      29.80R
WEINERT 2NNE     N/A     62  32  32 SE10      29.88R
WHITE RVR 6NE    N/A     64  25  22 SE14      29.81R
$$

TXZ052-054-060>062-072-078-127-140-154-169-170500-
TEXAS TECH WEST TEXAS MESONET/PERMIAN BASIN/
CONCHO VALLEY/BIG COUNTRY/EDWARDS PLATEAU

CITY           SKY/WX    TMP DP  RH WIND       PRES   REMARKS
COYANOSA 2N      N/A     64  33  31 SE17      29.77R
JUNCTION 1SSW    N/A     60  39  45 SE5       29.93R
MERTZON 3NNE     N/A     61  36  38 SE7       29.89R
SAN ANGELO 7NW   N/A     62  31  32 SE9       29.89R
STRLNG CT 4WSW   N/A     63  34  34 SE14      29.88R
ST LAWRNCE 5SW   N/A     60  31  33 SE18      29.85R
WALL 1E          N/A     62  34  35 SE10      29.90R
$$

TXZ055-058-074-075-080-082-170500-
TEXAS TECH WEST TEXAS MESONET/FAR WEST/SOUTHWEST MOUNTAINS/TRANS PECOS

CITY           SKY/WX    TMP DP  RH WIND       PRES   REMARKS
PRSMN GAP BBNP   N/A     65  34  31 N20       29.82R
$$